EHI
0 0 0 1 2 2 1 0 0 0 0 0 0 0 1 2 3 3 1 0 0 0 0 0 0 0 0 0 0 0 0 0 0 0 0 0 0 0 0 0 0 0 0
0 0 0 0 1 1 0 0 0 0 0 0 0 0 0 1 2 3 1 0 0 0 0 0 0 0 0 0 0 0 0 0 0 0 0 0 0 0 0 0 0 0 0
0 0 0 0 0 0 0 0 0 0 0 0 0 0 0 0 1 2 1 0 0 0 0 0 0 0 0 0 0 0 0 0 0 0 0 0 0 0 0 0 0 0 0
0 0 0 0 0 0 0 0 0 0 0 0 0 0 0 0 1 2 1 0 0 0 0 0 0 0 0 0 0 0 0 0 0 0 0 0 0 0 0 0 0 0 0
0 0 0 0 0 0 0 0 0 0 0 0 0 0 0 0 0 1 1 0 0 0 0 0 0 0 0 0 0 0 0 0 0 0 0 0 0 0 0 0 0 0 0
0 0 0 0 0 0 0 0 0 0 0 0 0 0 0 0 0 0 0 0 0 0 0 0 0 0 0 0 0 0 0 0 0 0 0 0 0 0 0 0 0 0 0
0 0 0 0 0 0 0 0 0 0 0 0 0 0 0 0 0 0 0 0 0 0 0 0 0 0 0 0 0 0 0 0 0 0 0 0 0 0 0 0 0 0 0
0 0 0 0 0 0 0 0 0 0 0 0 0 0 0 0 0 0 0 0 0 0 0 0 0 0 0 0 0 0 0 0 0 0 0 0 0 0 0 0 0 0 0
0 0 0 0 0 0 0 0 0 0 0 0 0 0 0 0 0 0 0 0 0 0 0 0 0 0 0 0 0 0 0 0 0 0 0 0 0 0 0 0 0 0 0
0 0 0 0 0 0 0 0 0 0 0 0 0 0 0 0 0 0 0 0 0 0 0 0 0 0 0 0 0 0 0 0 0 0 0 0 0 0 0 0 0 0 0
0 0 0 0 0 0 0 0 0 0 0 0 0 0 0 0 0 0 0 0 0 0 0 0 0 0 0 0 0 0 0 0 0 0 0 0 0 0 0 0 0 0 0
0 0 0 0 0 0 0 0 0 0 0 0 0 0 0 0 0 0 0 0 0 0 0 0 0 0 0 0 0 0 0 0 0 0 0 0 0 0 0 0 0 0 0
0 0 0 0 0 0 0 0 0 0 0 0 0 0 0 0 0 0 0 0 0 0 0 0 0 0 0 0 0 0 0 0 0 0 0 0 0 0 0 0 0 0 0
0 0 0 0 0 0 0 0 0 0 0 0 0 0 0 0 0 0 0 0 0 0 0 0 0 0 0 0 0 0 0 0 0 0 0 0 0 0 0 0 0 0 0
0 0 0 0 0 0 0 0 0 0 0 0 0 0 0 0 0 0 0 0 0 0 0 0 0 0 0 0 0 0 0 0 0 0 0 0 0 0 0 0 0 0 0
0 0 0 0 0 0 0 0 0 0 0 0 0 0 0 0 0 0 0 0 0 0 0 0 0 0 0 0 0 0 0 0 0 0 0 0 0 0 0 0 0 0 0
0 0 0 0 0 0 0 0 0 0 0 0 0 0 0 0 0 0 0 0 0 0 0 0 0 0 0 0 0 0 0 0 0 0 0 0 0 0 0 0 0 0 0
0 0 0 0 0 0 0 0 0 0 0 0 0 0 0 0 0 0 0 0 0 0 0 0 0 0 0 0 0 0 0 0 0 0 0 0 0 0 0 0 0 0 0
0 0 0 0 0 0 0 0 0 0 0 0 0 0 0 0 0 0 0 0 0 0 0 0 0 0 0 0 0 0 0 0 0 0 0 0 0 0 0 0 0 0 0
0 0 0 0 0 0 0 0 0 0 0 0 0 0 0 0 0 0 0 0 0 0 0 0 0 0 0 0 0 0 0 0 0 0 0 0 0 0 0 0 0 0 0
0 0 0 0 0 0 0 0 0 0 0 0 0 0 0 0 0 0 0 0 0 0 0 0 0 0 0 0 0 0 0 0 0 0 0 0 0 0 0 0 0 0 0
0 0 0 0 0 0 0 0 0 0 0 0 0 0 0 0 0 0 0 0 0 0 0 0 0 0 0 0 0 0 0 0 0 0 0 0 0 0 0 0 0 0 0
0 0 0 0 0 0 0 0 0 0 0 0 0 0 0 0 0 0 0 0 0 0 0 0 0 0 0 0 0 0 0 0 0 0 0 0 0 0 0 0 0 0 0
0 0 0 0 0 0 0 0 0 0 0 0 0 0 0 0 0 0 0 0 0 0 0 0 0 0 0 0 0 0 0 0 0 0 0 0 0 0 0 0 0 0 0
0 0 0 0 0 0 0 0 0 0 0 0 0 0 0 0 0 0 0 0 0 0 0 0 0 0 0 0 0 0 0 0 0 0 0 0 0 0 0 0 0 0 0
0 0 0 0 0 0 0 0 0 0 0 0 0 0 0 0 0 0 0 0 0 0 0 0 0 0 0 0 0 0 0 0 0 0 0 0 0 0 0 0 0 0 0
Wind_Speed
4 3 2 1 1 1 1 2 3 3 3 2 2 2 2 2 2 2 2 3 3 4 3 3 3 3 3 4 4 3 3 2 2 2 3 4 5 5 4 4 4 4 4
3 3 2 2 1 0 1 1 2 2 3 2 2 2 3 2 2 2 2 3 3 4 4 4 3 4 3 4 4 4 3 2 2 2 2 3 4 3 3 4 4 4 4
4 3 3 2 2 1 1 1 2 2 3 3 2 2 2 2 2 2 2 3 4 4 4 5 4 4 4 4 4 4 5 4 4 3 3 3 3 1 4 5 4 4 4
3 3 3 2 2 2 2 2 2 2 3 3 3 3 3 3 4 3 3 4 4 4 4 5 5 5 4 4 4 5 5 5 5 4 4 5 3 3 3 4 4 4 4
3 4 4 3 2 2 2 2 2 2 2 3 3 4 4 4 4 4 4 4 4 4 4 5 5 5 5 5 5 5 6 5 6 5 4 5 5 6 5 5 5 4 4
3 4 3 2 2 2 2 2 3 3 3 3 4 4 5 5 5 5 5 4 3 3 4 5 5 5 5 6 6 5 7 6 7 6 5 5 5 5 5 5 5 5 4
3 4 3 2 2 2 2 3 3 4 4 4 4 5 5 5 6 6 5 5 4 4 5 5 5 5 5 6 6 6 6 7 7 7 6 6 6 6 5 5 5 5 4
3 4 3 3 3 3 3 3 3 4 4 4 5 5 5 4 4 5 5 5 4 5 5 6 6 6 6 6 6 6 6 6 7 7 7 6 6 6 6 5 5 5 4
4 4 4 3 3 3 4 4 4 4 4 5 5 5 5 5 5 5 5 4 5 5 6 6 6 6 6 6 6 6 6 6 6 7 7 6 6 6 6 6 6 6 6
4 4 3 4 4 4 4 4 4 4 5 5 5 5 6 6 6 5 6 5 5 6 6 6 6 6 6 6 6 6 6 6 6 5 7 7 5 6 6 5 6 6 7
4 4 4 4 4 4 4 4 4 4 5 5 5 6 6 5 5 5 6 6 5 6 6 6 6 6 6 6 6 7 6 6 7 6 6 6 6 6 5 5 6 6 6
4 4 4 4 4 4 4 4 4 5 5 5 6 6 6 5 6 6 6 6 6 6 7 7 6 6 6 7 7 7 6 6 7 7 6 7 5 6 5 5 6 6 7
4 4 4 4 4 4 5 5 5 5 5 5 5 6 6 6 6 6 6 6 6 6 6 6 6 6 7 7 7 7 6 6 7 7 7 7 6 6 5 5 6 5 5
4 4 4 4 4 5 5 5 5 5 5 5 6 6 6 6 6 6 6 6 6 6 6 6 7 7 7 7 7 6 6 6 6 6 6 6 6 6 6 5 6 6 6
5 5 5 5 5 5 5 5 5 5 5 6 6 6 6 6 6 6 6 6 6 6 6 6 6 6 6 6 7 6 6 6 6 6 6 6 7 7 7 5 5 6 5
5 5 5 6 6 6 6 5 5 5 5 6 6 6 6 6 6 6 6 6 5 5 5 6 6 6 5 7 9 8 6 6 6 6 7 7 7 7 8 9 9 8 7
5 6 6 6 6 6 6 6 6 5 5 6 6 6 6 6 6 6 5 5 5 5 6 6 6 7 7 9 9 10 7 6 6 7 7 5 5 7 6 7 8 8 9
5 6 5 5 5 5 5 5 5 5 5 6 6 6 6 6 6 6 5 6 5 5 6 6 6 7 7 9 9 10 8 6 6 7 7 7 6 6 6 6 7 7 7
5 5 5 5 5 5 5 5 5 5 5 5 6 6 6 6 6 6 6 6 5 6 6 6 6 7 7 8 9 9 6 6 7 7 7 7 7 8 8 7 7 7 6
4 4 4 4 4 5 4 5 5 5 5 6 6 6 6 6 7 6 6 6 6 6 6 6 6 7 7 7 9 9 5 6 5 5 6 8 8 8 8 7 6 7 6
4 4 4 4 4 4 4 5 5 6 6 6 6 6 6 6 6 6 5 5 5 6 6 6 6 6 6 7 8 9 6 5 5 5 5 5 7 9 9 8 7 7 7
4 4 4 4 4 4 4 5 6 6 6 6 6 6 6 6 5 5 5 5 5 5 5 5 5 5 5 6 7 9 9 8 6 6 5 5 8 9 9 7 7 8 7
4 4 4 4 5 5 4 6 6 6 6 6 6 6 6 5 4 4 5 4 4 4 4 4 4 4 4 5 8 8 9 10 7 6 7 8 8 8 7 7 7 7 5
4 4 4 4 5 6 6 5 6 5 5 6 6 5 5 4 3 3 3 3 4 4 4 4 4 4 4 4 4 5 5 7 6 5 5 7 7 6 6 5 5 4 4
4 4 4 5 6 6 6 6 5 5 5 5 5 5 4 3 3 3 3 4 4 5 5 4 4 5 5 6 9 7 6 5 4 4 3 3 3 3 3 3 3 3 3
4 4 4 5 5 6 6 6 5 5 5 5 5 4 4 3 3 3 3 4 5 7 8 8 7 6 8 9 10 10 10 8 6 4 3 3 3 4 3 3 4 3 3
Wind_Direction
224 218 210 198 152 87 27 2 359 360 355 348 334 320 308 305 304 311 319 315 318 312 300 295 288 282 268 267 269 265 258 250 252 257 256 250 239 231 226 226 223 219 224
225 226 225 208 214 246 333 336 349 347 342 333 319 288 294 285 285 293 295 301 311 311 303 297 291 281 276 261 260 261 260 258 234 253 250 240 219 215 229 230 226 225 221
242 233 235 234 238 253 288 300 317 320 328 327 318 316 302 293 288 292 292 298 301 299 298 294 290 282 278 265 259 255 253 255 241 235 242 244 239 236 215 227 227 224 225
255 258 249 251 260 277 273 281 292 305 317 315 311 306 298 299 296 287 283 288 288 291 292 292 288 281 273 269 259 255 259 255 246 239 246 258 264 252 234 218 224 229 236
266 269 262 255 268 290 282 275 285 292 306 301 299 293 292 297 298 291 282 283 282 285 289 287 284 280 276 271 262 255 254 254 251 243 245 251 249 244 245 235 225 234 235
280 274 272 273 274 291 290 280 282 290 295 291 291 291 293 298 299 290 286 285 284 284 287 288 286 283 280 274 269 260 251 253 255 250 241 243 242 235 242 244 232 236 238
278 283 284 285 291 290 293 286 285 293 298 294 287 285 289 291 290 293 283 287 283 286 288 291 286 281 280 278 273 263 256 252 253 251 246 246 250 247 249 253 248 241 242
282 284 283 287 289 296 295 291 289 292 301 299 293 285 282 283 286 293 292 284 284 286 287 285 283 283 284 281 277 265 256 252 250 252 251 249 250 250 245 244 249 243 238
283 286 290 287 287 293 296 290 288 291 295 294 290 287 285 281 285 287 287 282 286 292 288 283 282 284 283 279 278 270 265 259 254 252 253 253 252 249 248 241 237 240 236
285 292 296 288 287 291 294 292 288 287 291 294 293 291 287 286 286 285 286 288 288 289 288 286 283 283 281 277 273 272 267 266 264 258 252 251 252 251 247 241 240 242 241
288 290 293 292 295 295 296 300 294 293 295 295 292 289 289 290 288 285 286 289 290 291 288 286 285 283 282 280 274 271 266 263 265 261 257 257 256 252 250 245 240 240 240
286 289 292 293 297 299 301 302 298 293 292 292 289 288 292 293 290 290 291 291 289 289 288 285 283 284 282 280 274 272 269 263 262 263 262 261 259 255 258 255 247 244 239
291 297 298 299 300 301 300 297 294 294 294 294 291 291 293 293 291 290 293 292 288 288 286 284 282 281 281 277 273 271 268 265 263 263 262 261 257 256 256 256 256 249 243
291 299 302 304 306 302 297 293 294 298 301 296 289 288 292 292 290 289 290 289 287 285 285 284 284 281 278 276 274 271 267 263 262 262 262 261 258 258 261 255 256 249 245
293 296 300 305 308 305 300 297 298 303 303 296 293 293 294 293 291 289 289 288 287 287 286 284 284 283 279 274 277 274 267 263 264 263 261 262 264 266 264 264 260 248 242
289 294 296 297 300 301 303 301 301 305 302 294 294 298 298 296 293 291 288 288 289 289 287 284 283 284 282 290 289 287 273 266 263 263 262 263 260 264 267 270 271 261 243
289 290 289 290 294 298 300 301 299 301 297 294 295 296 298 297 297 294 289 286 286 286 284 284 285 283 285 291 292 293 285 272 268 266 265 265 266 267 264 266 266 267 263
286 288 290 295 301 301 299 299 298 293 291 293 296 299 299 295 295 289 284 285 285 282 280 281 282 284 285 291 293 294 285 277 271 267 264 263 264 264 267 263 262 260 258
285 285 288 294 298 298 302 302 298 295 290 292 297 299 295 291 290 284 283 284 282 281 281 281 280 281 286 292 294 295 282 272 270 266 264 264 263 265 265 261 261 265 270
292 295 299 298 295 301 306 299 297 295 294 297 297 296 291 286 284 280 280 282 280 279 282 281 280 280 282 290 293 292 281 276 275 272 266 262 266 265 262 258 256 259 264
298 302 301 297 298 305 302 294 297 298 301 302 300 297 293 286 279 276 277 279 279 279 280 281 281 280 281 289 290 292 285 281 278 275 275 270 268 266 265 265 260 263 270
302 302 299 303 307 306 300 296 298 303 305 303 301 300 296 288 278 277 279 278 275 275 277 279 282 283 285 290 291 294 294 294 286 277 275 274 273 270 269 268 269 273 275
294 296 297 305 310 311 303 298 304 309 307 306 305 304 301 288 279 275 275 275 271 271 275 279 284 291 294 295 299 299 301 299 291 282 280 281 278 275 266 264 269 268 262
291 295 298 303 310 314 310 304 305 307 305 306 308 306 303 298 296 287 272 272 270 271 275 281 287 292 295 295 300 300 299 297 292 286 282 281 277 276 275 268 261 259 262
295 294 296 301 307 312 312 313 313 311 308 309 309 308 303 299 300 295 289 280 277 279 282 283 286 289 291 300 312 314 306 301 299 303 291 282 282 279 276 277 276 269 266
296 299 303 304 308 311 311 315 317 311 306 305 307 307 305 301 295 297 301 301 299 306 305 303 298 295 298 309 313 316 318 319 319 308 283 280 276 276 278 281 283 277 270